This is the latest recevied weather packets stored in our database for station/object AC0MR. If no packets are shown the sender has not sent any weather packets the latest 10 day(s).
| Time | Temp. | Humidity | Pressure | Rain* | Wind** | Luminosity | Snow |
|---|---|---|---|---|---|---|---|
| 1777493118 | 15° C | 41% | 1016.5 hPa | 0 mm | - | 887 W/m² | - |
| 1777492518 | 14.44° C | 37% | 1016.4 hPa | 0 mm | - | 849 W/m² | - |
| 1777491918 | 14.44° C | 42% | 1016.5 hPa | 0 mm | - | 901 W/m² | - |
| 1777491318 | 14.44° C | 41% | 1016.7 hPa | 0 mm | - | 922 W/m² | - |
| 1777490718 | 13.89° C | 43% | 1016.4 hPa | 0 mm | - | 900 W/m² | - |
| 1777490118 | 13.33° C | 41% | 1016.6 hPa | 0 mm | - | 588 W/m² | - |
| 1777489520 | 13.89° C | 41% | 1016.4 hPa | 0 mm | - | 940 W/m² | - |
| 1777488918 | 13.89° C | 39% | 1016.5 hPa | 0 mm | - | 293 W/m² | - |
| 1777488318 | 14.44° C | 43% | 1016.7 hPa | 0 mm | - | 924 W/m² | - |
| 1777487719 | 13.89° C | 43% | 1016.6 hPa | 0 mm | - | 976 W/m² | - |
| 1777487120 | 13.89° C | 44% | 1016.7 hPa | 0 mm | - | 957 W/m² | - |
| 1777486518 | 13.33° C | 43% | 1016.6 hPa | 0 mm | - | 954 W/m² | - |
| 1777485920 | 12.78° C | 44% | 1016.9 hPa | 0 mm | - | 961 W/m² | - |
| 1777485319 | 13.33° C | 43% | 1017 hPa | 0 mm | - | 981 W/m² | - |
| 1777484719 | 12.78° C | 45% | 1016.8 hPa | 0 mm | - | 920 W/m² | - |
| 1777484119 | 12.22° C | 44% | 1016.8 hPa | 0 mm | - | 906 W/m² | - |
| 1777483520 | 12.78° C | 46% | 1016.9 hPa | 0 mm | - | 920 W/m² | - |
| 1777482920 | 12.78° C | 44% | 1016.9 hPa | 0 mm | - | 919 W/m² | - |
| 1777482319 | 12.22° C | 46% | 1016.9 hPa | 0 mm | - | 892 W/m² | - |
| 1777481719 | 12.22° C | 48% | 1017.1 hPa | 0 mm | - | 890 W/m² | - |
| 1777481119 | 12.22° C | 44% | 1017.2 hPa | 0 mm | - | 852 W/m² | - |
| 1777480519 | 12.22° C | 47% | 1017.1 hPa | 0 mm | - | 833 W/m² | - |
| 1777479920 | 12.22° C | 48% | 1017.1 hPa | 0 mm | - | 816 W/m² | - |
| 1777479319 | 11.67° C | 48% | 1017.1 hPa | 0 mm | - | 802 W/m² | - |
| 1777478719 | 11.67° C | 49% | 1017 hPa | 0 mm | - | 782 W/m² | - |
* Rain latest hour (hover to see other rain measurements)
** Current wind speed in m/s (hover to see current wind gust speed)